Akron, CO

12:44 PM MDT on March 27, 2017 (GMT -0600)
Akron-Washington County

Weather History for KAKO - May, 2012

Change the Weather History Date:

Monday, May 21, 2012

  Actual Average Record
Temperature  
Mean Temperature 68 °F 59 °F  
Max Temperature 85 °F 72 °F 90 °F (1964)
Min Temperature 50 °F 45 °F 32 °F (1974)
Degree Days  
Heating Degree Days 0    
Month to date heating degree days 137  
Cooling Degree Days 3    
Month to date cooling degree days 23  
Growing Degree Days 18 (Base 50)    
Moisture  
Dew Point 42 °F    
Average Humidity 42    
Maximum Humidity 67    
Minimum Humidity 16    
Precipitation  
Precipitation 0.00 in 0.11 in 1.38 in (1961)
Month to date precipitation 0.45 1.88  
Year to date precipitation 2.70 5.14  
Sea Level Pressure  
Sea Level Pressure 30.01 in    
Wind  
Wind Speed 14 mph (South)    
Max Wind Speed 23 mph    
Max Gust Speed 29 mph    
Visibility 10 miles    
Events      
T = Trace of Precipitation, MM = Missing Value Source: NWS Daily Summary

Daily Weather History Graph

Daily Weather History Graph

Search for Another Location

Airport or City:

Trip Planner

Search our weather history database for the weather conditions in past years. The results will help you decide how hot, cold, wet, or windy it might be!

Date:

Astronomy

May. 21, 2012 Rise Set
Actual Time 5:31 AM MDT 8:07 PM MDT
Civil Twilight 5:00 AM MDT 8:39 PM MDT
Nautical Twilight 4:21 AM MDT 9:18 PM MDT
Astronomical Twilight 3:37 AM MDT 10:02 PM MDT
Moon 5:56 AM MDT (5/21) 9:00 PM MDT (5/21)
Length of Visible Light 15h 38m
Length of Day
14h 36m
New Moon, 1% of the Moon is Illuminated
May 21
New Moon
May 28
First Quarter
Jun 4
Full
Jun 11
Last Quarter
Jun 19
New

Hourly Weather History & Observations

Time (MDT) Temp. Dew Point Humidity Pressure Visibility Wind Dir Wind Speed Gust Speed Precip Events Conditions
12:53 AM 53.1 °F 39.9 °F 61% 30.15 in 10.0 mi SSE 16.1 mph - N/A   Clear
1:53 AM 51.1 °F 39.9 °F 66% 30.14 in 10.0 mi SSE 12.7 mph - N/A   Clear
2:53 AM 51.1 °F 39.0 °F 63% 30.11 in 10.0 mi South 12.7 mph - N/A   Clear
3:53 AM 54.0 °F 37.0 °F 53% 30.09 in 10.0 mi South 18.4 mph 25.3 mph N/A   Clear
4:53 AM 52.0 °F 39.0 °F 61% 30.09 in 10.0 mi South 11.5 mph - N/A   Clear
5:53 AM 53.1 °F 43.0 °F 69% 30.09 in 10.0 mi South 11.5 mph - N/A   Clear
6:53 AM 57.9 °F 46.0 °F 65% 30.08 in 10.0 mi South 13.8 mph - N/A   Clear
7:53 AM 63.0 °F 48.9 °F 60% 30.08 in 10.0 mi SSW 17.3 mph 25.3 mph N/A   Clear
8:53 AM 68.0 °F 50.0 °F 52% 30.07 in 10.0 mi SSW 16.1 mph 23.0 mph N/A   Clear
9:53 AM 73.0 °F 48.9 °F 42% 30.05 in 10.0 mi SSW 16.1 mph - N/A   Clear
10:53 AM 75.9 °F 46.9 °F 36% 30.04 in 10.0 mi SSW 12.7 mph 21.9 mph N/A   Clear
11:53 AM 79.0 °F 45.0 °F 30% 30.02 in 10.0 mi South 13.8 mph 20.7 mph N/A   Clear
12:53 PM 81.0 °F 44.1 °F 27% 30.00 in 10.0 mi South 11.5 mph 21.9 mph N/A   Partly Cloudy
1:53 PM 80.1 °F 37.0 °F 21% 29.99 in 10.0 mi South 12.7 mph 25.3 mph N/A   Partly Cloudy
2:53 PM 84.0 °F 34.0 °F 17% 29.95 in 10.0 mi SW 11.5 mph 23.0 mph N/A   Partly Cloudy
3:53 PM 82.9 °F 35.1 °F 18% 29.92 in 10.0 mi South 9.2 mph 20.7 mph N/A   Partly Cloudy
4:53 PM 84.0 °F 36.0 °F 18% 29.91 in 10.0 mi SSW 11.5 mph 18.4 mph N/A   Clear
5:53 PM 82.9 °F 36.0 °F 19% 29.88 in 10.0 mi SE 11.5 mph 27.6 mph N/A   Partly Cloudy
6:53 PM 82.0 °F 36.0 °F 19% 29.86 in 10.0 mi SSW 11.5 mph - N/A   Clear
7:53 PM 75.9 °F 37.9 °F 25% 29.86 in 10.0 mi South 6.9 mph - N/A   Clear
8:53 PM 70.0 °F 45.0 °F 41% 29.88 in 10.0 mi South 10.4 mph - N/A   Clear
11:53 PM 64.0 °F 52.0 °F 65% 29.85 in 10.0 mi South 16.1 mph - N/A   Clear